Location: Unspecified
(44.0704°N, 88.6889°W)
Time: 11:33:57
(UTC+02:00)

Vanguard 2 Rocket - Pass Details

Date: 13 August 2020
Orbit: 554 x 3326 km, 32.9° (Epoch: 22 September)

Event Time Altitude Azimuth Distance (km) Brightness Sun altitude
Rises 03:15:26 0° 255° (WSW) 3,715 11.0 -2.9°
Reaches altitude 10° 03:17:45 10° 248° (WSW) 3,023 10.3 -3.3°
Maximum altitude 03:24:54 42° 179° (S) 2,168 8.6 -4.5°
Drops below altitude 10° 03:37:01 10° 116° (ESE) 5,073 10.0 -6.4°
Enters shadow 03:38:25 - 114° (ESE) 5,467 10.2 -6.6°
